This is the latest recevied weather packets stored in our database for station/object VE6EN. If no packets are shown the sender has not sent any weather packets the latest 10 day(s).
| Time | Temp. | Humidity | Pressure | Rain* | Wind** | Luminosity | Snow |
|---|---|---|---|---|---|---|---|
| 1788139804 | 14.44° C | 74% | 1009.6 hPa | 0 mm | - | - | - |
| 1788139203 | 14.44° C | 73% | 1009.5 hPa | 0 mm | - | - | - |
| 1788138667 | 14.44° C | 72% | 1009.4 hPa | 0 mm | - | - | - |
| 1788138003 | 14.44° C | 71% | 1009.3 hPa | 0 mm | - | - | - |
| 1788137403 | 14.44° C | 70% | 1009.2 hPa | 0 mm | - | - | - |
| 1788136805 | 14.44° C | 69% | 1009 hPa | 0 mm | - | - | - |
| 1788136204 | 15° C | 69% | 1009 hPa | 0 mm | - | - | - |
| 1788135606 | 15° C | 66% | 1008.7 hPa | 0 mm | - | - | - |
| 1788135004 | 15° C | 67% | 1008.6 hPa | 0 mm | - | - | - |
| 1788134404 | 15.56° C | 66% | 1008.5 hPa | 0 mm | - | - | - |
| 1788133804 | 15.56° C | 65% | 1008.4 hPa | 0 mm | - | - | - |
| 1788133203 | 15.56° C | 66% | 1008.4 hPa | 0 mm | - | - | - |
| 1788132607 | 15.56° C | 66% | 1008.3 hPa | 0 mm | - | - | - |
| 1788132004 | 15.56° C | 68% | 1008.2 hPa | 0 mm | - | - | - |
| 1788131404 | 15° C | 67% | 1008.3 hPa | 0 mm | - | - | - |
| 1788130803 | 15° C | 68% | 1008.4 hPa | 0 mm | - | - | - |
| 1788130203 | 15.56° C | 67% | 1008.3 hPa | 0 mm | - | - | - |
| 1788129610 | 15.56° C | 67% | 1008.1 hPa | 0 mm | - | - | - |
| 1788129004 | 15.56° C | 67% | 1008.1 hPa | 0 mm | - | - | - |
| 1788128403 | 15° C | 69% | 1008 hPa | 0 mm | - | - | - |
| 1788127805 | 14.44° C | 72% | 1008 hPa | 0 mm | - | - | - |
| 1788127203 | 14.44° C | 73% | 1008 hPa | 0 mm | - | - | - |
| 1788126604 | 14.44° C | 73% | 1008 hPa | 0 mm | - | - | - |
| 1788126003 | 13.89° C | 73% | 1008 hPa | 0 mm | - | - | - |
| 1788125404 | 13.89° C | 73% | 1007.8 hPa | 0 mm | - | - | - |
* Rain latest hour (hover to see other rain measurements)
** Current wind speed in m/s (hover to see current wind gust speed)